| time (UTC) | temp F | wind direction | speed MPH | gust MPH | rain 1hr in | rain 24hr in | rain mn in | humidity % | barometer mb |
| 20260507183049 | 74 | 175 | 0.0 | 4.0 | 0.00 | 0.03 | 0.03 | 87 | 1011.1 |
| 20260507181541 | 73 | 129 | 0.0 | 2.0 | 0.00 | 0.03 | 0.03 | 89 | 1011.4 |
| 20260507180040 | 71 | 183 | 0.0 | 4.0 | 0.00 | 0.03 | 0.03 | 91 | 1011.4 |
| 20260507174540 | 71 | 186 | 0.0 | 3.0 | 0.00 | 0.03 | 0.03 | 92 | 1011.5 |
| 20260507173043 | 71 | 152 | 1.0 | 3.0 | 0.00 | 0.03 | 0.03 | 92 | 1011.5 |
| 20260507171541 | 71 | 152 | 0.0 | 4.0 | 0.00 | 0.03 | 0.03 | 92 | 1011.7 |
| 20260507170038 | 72 | 81 | 1.0 | 5.0 | 0.00 | 0.03 | 0.03 | 90 | 1011.8 |
| 20260507164539 | 72 | 138 | 0.0 | 2.0 | 0.00 | 0.03 | 0.03 | 91 | 1011.8 |
| 20260507163038 | 72 | 147 | 0.0 | 2.0 | 0.00 | 0.03 | 0.03 | 92 | 1011.7 |
| 20260507161536 | 72 | 135 | 0.0 | 2.0 | 0.00 | 0.03 | 0.03 | 93 | 1011.8 |
| 20260507160056 | 71 | 83 | 0.0 | 3.0 | 0.00 | 0.03 | 0.03 | 93 | 1011.9 |
| 20260507154536 | 71 | 155 | 0.0 | 4.0 | 0.00 | 0.03 | 0.03 | 94 | 1011.8 |
| 20260507153034 | 72 | 129 | 0.0 | 4.0 | 0.00 | 0.03 | 0.03 | 94 | 1011.7 |
| 20260507151532 | 72 | 105 | 1.0 | 4.0 | 0.00 | 0.03 | 0.03 | 94 | 1011.7 |
| 20260507150030 | 72 | 135 | 0.0 | 4.0 | 0.01 | 0.03 | 0.03 | 94 | 1011.7 |
| 20260507144541 | 72 | 155 | 0.0 | 4.0 | 0.02 | 0.03 | 0.03 | 94 | 1011.5 |
| 20260507143025 | 73 | 129 | 1.0 | 4.0 | 0.03 | 0.03 | 0.03 | 95 | 1011.3 |
| 20260507141527 | 73 | 158 | 0.0 | 2.0 | 0.03 | 0.03 | 0.03 | 95 | 1011.2 |
| 20260507140023 | 74 | 129 | 0.0 | 4.0 | 0.01 | 0.01 | 0.01 | 94 | 1011.2 |
| 20260507134521 | 75 | 141 | 1.0 | 6.0 | 0.01 | 0.01 | 0.01 | 92 | 1011.2 |
| 20260507133015 | 77 | 172 | 1.0 | 5.0 | 0.00 | 0.00 | 0.00 | 95 | 1010.6 |
| 20260507131517 | 77 | 111 | 0.0 | 3.0 | 0.00 | 0.00 | 0.00 | 95 | 1010.7 |
| 20260507130025 | 77 | 81 | 0.0 | 3.0 | 0.00 | 0.00 | 0.00 | 95 | 1010.6 |
| 20260507124516 | 77 | 139 | 1.0 | 4.0 | 0.00 | 0.00 | 0.00 | 95 | 1010.4 |
| 20260507123009 | 77 | 6 | 1.0 | 4.0 | 0.00 | 0.00 | 0.00 | 95 | 1010.2 |
| 20260507121508 | 77 | 155 | 0.0 | 3.0 | 0.00 | 0.00 | 0.00 | 95 | 1010.1 |
| 20260507120010 | 77 | 131 | 0.0 | 4.0 | 0.00 | 0.00 | 0.00 | 95 | 1009.9 |
| 20260507114605 | 77 | 242 | 1.0 | 4.0 | 0.00 | 0.01 | 0.00 | 95 | 1009.5 |
| 20260507113100 | 77 | 340 | 2.0 | 4.0 | 0.00 | 0.01 | 0.00 | 95 | 1009.4 |
| 20260507111603 | 77 | 122 | 2.0 | 5.0 | 0.00 | 0.01 | 0.00 | 95 | 1009.2 |
| 20260507110058 | 77 | 289 | 1.0 | 4.0 | 0.00 | 0.01 | 0.00 | 95 | 1009.0 |
| 20260507104556 | 77 | 127 | 1.0 | 4.0 | 0.00 | 0.01 | 0.00 | 95 | 1008.9 |
| 20260507103055 | 77 | 141 | 0.0 | 3.0 | 0.00 | 0.01 | 0.00 | 94 | 1008.9 |
| 20260507101612 | 77 | 98 | 1.0 | 3.0 | 0.00 | 0.01 | 0.00 | 94 | 1008.7 |
| 20260507100053 | 77 | 110 | 0.0 | 2.0 | 0.00 | 0.01 | 0.00 | 94 | 1008.8 |
| 20260507094552 | 77 | 40 | 0.0 | 3.0 | 0.00 | 0.01 | 0.00 | 94 | 1008.6 |
| 20260507093057 | 77 | 111 | 1.0 | 3.0 | 0.00 | 0.01 | 0.00 | 93 | 1008.5 |
| 20260507091552 | 0 | 0.0 | 0.0 | 0.00 | 0.01 | 0.00 | 1008.5 | ||
| 20260507090052 | 0 | 0.0 | 0.0 | 0.00 | 0.01 | 0.00 | 1008.6 | ||
| 20260507084550 | 76 | 65 | 0.0 | 2.0 | 0.00 | 0.01 | 0.00 | 93 | 1008.4 |
| 20260507083049 | 76 | 70 | 0.0 | 2.0 | 0.00 | 0.01 | 0.00 | 93 | 1008.4 |
| 20260507081547 | 76 | 349 | 0.0 | 2.0 | 0.00 | 0.01 | 0.00 | 93 | 1008.5 |
| 20260507080046 | 76 | 53 | 0.0 | 3.0 | 0.00 | 0.01 | 0.00 | 93 | 1008.6 |
| 20260507074552 | 77 | 72 | 0.0 | 2.0 | 0.00 | 0.01 | 0.00 | 93 | 1008.6 |
| 20260507073044 | 77 | 61 | 0.0 | 3.0 | 0.00 | 0.01 | 0.00 | 93 | 1008.7 |
| 20260507071543 | 77 | 295 | 1.0 | 4.0 | 0.00 | 0.01 | 0.00 | 93 | 1008.6 |
| 20260507070048 | 77 | 19 | 1.0 | 5.0 | 0.00 | 0.01 | 0.00 | 93 | 1008.7 |
| 20260507064548 | 77 | 6 | 0.0 | 4.0 | 0.00 | 0.01 | 0.00 | 93 | 1008.8 |
| 20260507063039 | 77 | 25 | 0.0 | 4.0 | 0.00 | 0.01 | 0.00 | 93 | 1008.7 |
| 20260507061538 | 77 | 356 | 1.0 | 4.0 | 0.00 | 0.01 | 0.00 | 93 | 1008.7 |
| 20260507060037 | 78 | 274 | 1.0 | 4.0 | 0.00 | 0.01 | 0.00 | 93 | 1008.7 |
| 20260507054536 | 77 | 37 | 1.0 | 6.0 | 0.00 | 0.01 | 0.00 | 93 | 1008.8 |
| 20260507053032 | 77 | 23 | 2.0 | 7.0 | 0.00 | 0.01 | 0.00 | 93 | 1008.9 |
| 20260507051530 | 78 | 105 | 2.0 | 7.0 | 0.00 | 0.01 | 0.00 | 93 | 1008.7 |
| 20260507050036 | 77 | 77 | 2.0 | 6.0 | 0.00 | 0.01 | 0.00 | 93 | 1008.7 |
| 20260507044527 | 78 | 32 | 3.0 | 8.0 | 0.00 | 0.01 | 0.01 | 93 | 1008.7 |
| 20260507043026 | 77 | 337 | 1.0 | 7.0 | 0.00 | 0.01 | 0.01 | 93 | 1008.7 |
| 20260507041539 | 78 | 103 | 2.0 | 6.0 | 0.00 | 0.01 | 0.01 | 93 | 1008.7 |
| 20260507040024 | 78 | 333 | 2.0 | 5.0 | 0.00 | 0.01 | 0.01 | 93 | 1008.8 |
| 20260507034526 | 78 | 120 | 0.0 | 3.0 | 0.00 | 0.01 | 0.01 | 93 | 1008.9 |
| 20260507033024 | 78 | 11 | 0.0 | 5.0 | 0.00 | 0.01 | 0.01 | 93 | 1008.7 |
| 20260507031523 | 78 | 20 | 0.0 | 3.0 | 0.00 | 0.01 | 0.01 | 93 | 1008.9 |
| 20260507030023 | 78 | 13 | 0.0 | 4.0 | 0.00 | 0.01 | 0.01 | 93 | 1008.9 |
| 20260507024522 | 78 | 139 | 0.0 | 3.0 | 0.00 | 0.01 | 0.01 | 93 | 1009.0 |
| 20260507023021 | 78 | 47 | 1.0 | 5.0 | 0.00 | 0.01 | 0.01 | 93 | 1009.1 |
| 20260507021521 | 78 | 55 | 0.0 | 5.0 | 0.00 | 0.01 | 0.01 | 93 | 1008.9 |
| 20260507020026 | 78 | 319 | 0.0 | 5.0 | 0.00 | 0.01 | 0.01 | 93 | 1008.6 |
| 20260507014530 | 78 | 25 | 0.0 | 5.0 | 0.00 | 0.01 | 0.01 | 93 | 1008.4 |
| 20260507013035 | 78 | 311 | 0.0 | 2.0 | 0.00 | 0.01 | 0.01 | 92 | 1008.4 |
| 20260507011532 | 78 | 153 | 0.0 | 4.0 | 0.00 | 0.01 | 0.01 | 92 | 1008.4 |
| 20260507010018 | 79 | 154 | 0.0 | 5.0 | 0.00 | 0.01 | 0.01 | 92 | 1008.3 |
| 20260507004518 | 79 | 193 | 0.0 | 5.0 | 0.00 | 0.01 | 0.01 | 91 | 1008.2 |
| 20260507003017 | 79 | 127 | 0.0 | 3.0 | 0.00 | 0.01 | 0.01 | 90 | 1008.1 |
| 20260507001517 | 80 | 158 | 0.0 | 2.0 | 0.00 | 0.01 | 0.01 | 90 | 1008.0 |
| 20260507000023 | 80 | 359 | 0.0 | 5.0 | 0.00 | 0.01 | 0.01 | 89 | 1007.9 |
| 20260506234515 | 81 | 127 | 0.0 | 4.0 | 0.00 | 0.01 | 0.01 | 88 | 1008.1 |
| 20260506233017 | 82 | 343 | 0.0 | 6.0 | 0.00 | 0.01 | 0.01 | 86 | 1007.9 |
| 20260506231515 | 82 | 196 | 1.0 | 5.0 | 0.00 | 0.01 | 0.01 | 85 | 1007.9 |
| 20260506230016 | 83 | 311 | 0.0 | 6.0 | 0.00 | 0.01 | 0.01 | 84 | 1007.8 |
| 20260506224512 | 83 | 10 | 1.0 | 4.0 | 0.00 | 0.01 | 0.01 | 83 | 1007.8 |
| 20260506223010 | 84 | 193 | 2.0 | 10.0 | 0.00 | 0.01 | 0.01 | 82 | 1008.1 |
| 20260506221511 | 85 | 156 | 0.0 | 5.0 | 0.00 | 0.01 | 0.01 | 80 | 1008.1 |
| 20260506220009 | 85 | 122 | 2.0 | 12.0 | 0.00 | 0.01 | 0.01 | 80 | 1008.2 |
| 20260506214508 | 85 | 133 | 2.0 | 7.0 | 0.00 | 0.01 | 0.01 | 79 | 1008.2 |
| 20260506213010 | 87 | 194 | 1.0 | 7.0 | 0.00 | 0.01 | 0.01 | 77 | 1008.4 |
| 20260506211505 | 87 | 67 | 1.0 | 6.0 | 0.00 | 0.01 | 0.01 | 75 | 1008.4 |
| 20260506210008 | 86 | 51 | 3.0 | 9.0 | 0.00 | 0.01 | 0.01 | 77 | 1008.5 |
| 20260506204505 | 86 | 331 | 0.0 | 9.0 | 0.00 | 0.01 | 0.01 | 79 | 1008.6 |
| 20260506203001 | 88 | 119 | 0.0 | 5.0 | 0.00 | 0.01 | 0.01 | 77 | 1008.8 |
| 20260506201600 | 87 | 160 | 1.0 | 6.0 | 0.00 | 0.01 | 0.01 | 77 | 1009.1 |
| 20260506200143 | 87 | 19 | 3.0 | 7.0 | 0.00 | 0.01 | 0.01 | 78 | 1009.3 |
| 20260506194609 | 87 | 22 | 0.0 | 8.0 | 0.00 | 0.01 | 0.01 | 76 | 1009.6 |
| 20260506193054 | 86 | 33 | 1.0 | 4.0 | 0.00 | 0.01 | 0.01 | 78 | 1009.8 |
| 20260506191553 | 85 | 201 | 1.0 | 5.0 | 0.00 | 0.01 | 0.01 | 79 | 1010.1 |
| 20260506190052 | 85 | 177 | 2.0 | 7.0 | 0.00 | 0.01 | 0.01 | 79 | 1010.3 |
| 20260506184554 | 84 | 4 | 3.0 | 8.0 | 0.00 | 0.01 | 0.01 | 81 | 1010.5 |